Back to catalog

THOR ABLESTAR DEB

AliveLEO
NORAD 19302·DEBRIS·🇺🇸 United States

Launched Jun 29, 1961 from Cape Canaveral Space Force Station

Loading…

Next Passes (next 24 hours)

TLE

FreshSource: Space-Track

Epoch: Sep 14, 2026, 09:48 UTC

1 19302U 61015MC  26257.40877091  .00000302  00000-0  20725-3 0  9990
2 19302  66.8435 302.1404 0060504 271.5511  87.8648 14.11530036967445

Track THOR ABLESTAR DEB in real time with AllMySat

Download on the App Store